Weather History for Billings, MT

Change the Weather History Date:

Monday, February 25, 2013

  Actual Average Record
Temperature  
Mean Temperature 36 °F 32 °F  
Max Temperature 46 °F 43 °F 69 °F (1995)
Min Temperature 26 °F 22 °F -14 °F (2011)
Degree Days  
Heating Degree Days 29 32  
Month to date heating degree days 796 873  
Since 1 July heating degree days 4475 4869  
Cooling Degree Days 0 0  
Month to date cooling degree days 0 0  
Year to date cooling degree days 0 0  
Moisture  
Dew Point 15 °F    
Average Humidity 43    
Maximum Humidity 58    
Minimum Humidity 27    
Precipitation  
Precipitation 0.00 in 0.02 in 0.65 in (2000)
Month to date precipitation 0.29 0.42  
Year to date precipitation 0.88 0.90  
Snow  
Snow 0.00 in 0.20 in 6.60 in (2000)
Month to date snowfall 4.4 5.4  
Since 1 July snowfall 32.1 33.7  
Snow Depth 0.00 in    
Sea Level Pressure  
Sea Level Pressure 29.91 in    
Wind  
Wind Speed 16 mph (WSW)    
Max Wind Speed 28 mph    
Max Gust Speed 36 mph    
Visibility 10 miles    
Events      
T = Trace of Precipitation, MM = Missing Value Source: NWS Daily Summary

Daily Weather History Graph

Daily Weather History Graph

Search for Another Location

Airport:

Trip Planner

Search our weather history database for the weather conditions in past years. The results will help you decide how hot, cold, wet, or windy it might be!

Date:

Astronomy

Feb. 25, 2013 Rise Set
Actual Time 6:59 AM MST 5:55 PM MST
Civil Twilight 6:29 AM MST 6:25 PM MST
Nautical Twilight 5:54 AM MST 7:00 PM MST
Astronomical Twilight 5:20 AM MST 7:34 PM MST
Moon 6:15 PM MST (2/25) 6:29 AM MST (2/25)
Length of Visible Light 11h 56m
Length of Day
10h 56m
Full, 100% of the Moon is Illuminated
Feb 25
Full
Feb 25
Full
Mar 4
Last Quarter
Mar 11
New
Mar 19
First Quarter

Hourly Weather History & Observations

Time (MST) Temp. Windchill Dew Point Humidity Pressure Visibility Wind Dir Wind Speed Gust Speed Precip Events Conditions
12:53 AM 28.9 °F 19.2 °F 15.1 °F 56% 30.05 in 10.0 mi WSW 11.5 mph - N/A   Clear
1:53 AM 28.9 °F 18.6 °F 15.1 °F 56% 30.04 in 10.0 mi WSW 12.7 mph - N/A   Clear
2:53 AM 28.9 °F 18.2 °F 15.1 °F 56% 30.02 in 10.0 mi WSW 13.8 mph - N/A   Clear
3:53 AM 28.0 °F 15.3 °F 15.1 °F 58% 30.00 in 10.0 mi SW 18.4 mph - N/A   Clear
4:53 AM 28.4 °F 18.0 °F 12.2 °F 51% 29.92 in 10.0 mi SW 12.7 mph - N/A   Clear
5:53 AM 27.0 °F 16.1 °F 12.0 °F 53% 30.00 in 10.0 mi WSW 12.7 mph - N/A   Clear
6:53 AM 27.0 °F 16.1 °F 12.0 °F 53% 29.99 in 10.0 mi SW 12.7 mph - N/A   Partly Cloudy
7:53 AM 30.0 °F 19.5 °F 12.0 °F 47% 29.97 in 10.0 mi WSW 13.8 mph - N/A   Clear
8:53 AM 33.1 °F 22.6 °F 12.9 °F 43% 29.95 in 10.0 mi SW 16.1 mph - N/A   Clear
9:53 AM 37.0 °F 29.8 °F 16.0 °F 42% 29.93 in 10.0 mi SSW 10.4 mph 17.3 mph N/A   Clear
10:53 AM 41.0 °F 31.1 °F 14.0 °F 33% 29.88 in 10.0 mi WSW 23.0 mph 28.8 mph N/A   Clear
11:53 AM 44.1 °F 35.2 °F 12.9 °F 28% 29.86 in 10.0 mi SW 23.0 mph 34.5 mph N/A   Partly Cloudy
12:53 PM 45.0 °F 37.4 °F 14.0 °F 29% 29.83 in 10.0 mi SW 18.4 mph 28.8 mph N/A   Partly Cloudy
1:53 PM 45.0 °F 36.6 °F 14.0 °F 29% 29.81 in 10.0 mi SW 21.9 mph 26.5 mph N/A   Partly Cloudy
2:53 PM 45.0 °F 38.5 °F 15.1 °F 30% 29.81 in 10.0 mi SW 13.8 mph 23.0 mph N/A   Partly Cloudy
3:53 PM 44.1 °F 36.2 °F 14.0 °F 30% 29.82 in 10.0 mi WSW 18.4 mph 24.2 mph N/A   Partly Cloudy
4:53 PM 41.0 °F 32.8 °F 15.1 °F 35% 29.83 in 10.0 mi WSW 16.1 mph - N/A   Scattered Clouds
5:53 PM 37.9 °F 29.6 °F 14.0 °F 38% 29.85 in 10.0 mi WSW 13.8 mph - N/A   Scattered Clouds
6:53 PM 37.9 °F 30.0 °F 14.0 °F 38% 29.88 in 10.0 mi West 12.7 mph - N/A   Mostly Cloudy
7:53 PM 37.9 °F 29.6 °F 19.0 °F 47% 29.87 in 10.0 mi West 13.8 mph - N/A   Overcast
8:53 PM 37.0 °F 26.4 °F 19.9 °F 50% 29.88 in 10.0 mi West 20.7 mph - N/A   Overcast
9:53 PM 37.0 °F 25.9 °F 19.9 °F 50% 29.88 in 10.0 mi West 23.0 mph 27.6 mph N/A   Overcast
10:53 PM 36.0 °F 25.6 °F 21.0 °F 55% 29.91 in 10.0 mi West 18.4 mph - N/A   Overcast
11:53 PM 35.1 °F 25.9 °F 21.0 °F 57% 29.91 in 10.0 mi West 13.8 mph - N/A   Mostly Cloudy